TimeCDT,TemperatureF,Dew PointF,Humidity,Sea Level PressureIn,VisibilityMPH,Wind Direction,Wind SpeedMPH,Gust SpeedMPH,PrecipitationIn,Events,Conditions,WindDirDegrees,DateUTC
12:53 AM,57.0,46.9,69,30.14,6.0,West,3.5,-,N/A,,Haze,270,2013-07-02 05:53:00
1:53 AM,55.0,46.0,72,30.13,6.0,WSW,5.8,-,N/A,,Haze,240,2013-07-02 06:53:00
2:53 AM,55.0,46.0,72,30.13,6.0,WSW,3.5,-,N/A,,Haze,240,2013-07-02 07:53:00
3:53 AM,53.1,46.0,77,30.13,6.0,WSW,4.6,-,N/A,,Haze,240,2013-07-02 08:53:00
4:53 AM,52.0,46.0,80,30.14,7.0,WSW,4.6,-,N/A,,Clear,240,2013-07-02 09:53:00
5:53 AM,51.1,46.0,83,30.15,7.0,SW,4.6,-,N/A,,Clear,230,2013-07-02 10:53:00
6:53 AM,52.0,46.0,80,30.16,6.0,WSW,3.5,-,N/A,,Haze,240,2013-07-02 11:53:00
7:53 AM,57.0,48.9,74,30.17,6.0,Calm,Calm,-,N/A,,Haze,0,2013-07-02 12:53:00
9:53 AM,71.1,48.0,44,30.17,10.0,Calm,Calm,-,N/A,,Clear,0,2013-07-02 14:53:00
10:53 AM,75.9,48.0,37,30.16,10.0,Calm,Calm,-,N/A,,Clear,0,2013-07-02 15:53:00
11:53 AM,79.0,46.9,32,30.15,10.0,ENE,8.1,-,N/A,,Mostly Cloudy,60,2013-07-02 16:53:00
12:53 PM,80.1,44.1,28,30.14,10.0,NE,10.4,-,N/A,,Clear,40,2013-07-02 17:53:00
1:53 PM,82.9,44.1,25,30.12,10.0,North,9.2,16.1,N/A,,Clear,350,2013-07-02 18:53:00
2:53 PM,81.0,42.1,25,30.10,10.0,Calm,Calm,-,N/A,,Clear,0,2013-07-02 19:53:00
3:53 PM,84.0,42.1,23,30.08,10.0,ENE,12.7,19.6,N/A,,Clear,60,2013-07-02 20:53:00
4:53 PM,82.9,39.0,21,30.06,10.0,Calm,Calm,-,N/A,,Clear,0,2013-07-02 21:53:00
5:53 PM,82.9,41.0,23,30.06,10.0,ESE,5.8,-,N/A,,Clear,110,2013-07-02 22:53:00
6:53 PM,82.9,41.0,23,30.04,10.0,ENE,6.9,-,N/A,,Clear,60,2013-07-02 23:53:00
7:53 PM,81.0,39.9,23,30.04,10.0,East,3.5,-,N/A,,Clear,100,2013-07-03 00:53:00
8:53 PM,75.0,44.1,33,30.04,10.0,SE,5.8,-,N/A,,Clear,130,2013-07-03 01:53:00
9:53 PM,66.9,46.0,47,30.05,10.0,SSE,5.8,-,N/A,,Clear,150,2013-07-03 02:53:00
10:53 PM,64.0,46.0,52,30.07,10.0,Variable,3.5,-,N/A,,Clear,0,2013-07-03 03:53:00
11:53 PM,60.1,48.0,64,30.07,10.0,SSE,5.8,-,N/A,,Clear,150,2013-07-03 04:53:00